Tabellarische Ansicht des 5.11.2012


Die einzelnen Werte des Tages

Uhrzeit Temperatur Luftdruck Luftfeuchte Wind Hi-Wind Taupunkt THW Index Wind Chill Heat Index Solar- strahlung Regen

00:00

8.6 C

993.7 hpa

81 %

19.3 km/h aus 117

35.4 km/h aus S

5.5 C

5.2 C

5.3 C

8.6 C

0 W/m

0.00 mm

00:05

8.6 C

993.7 hpa

80 %

27.4 km/h aus 116

41.8 km/h aus S

5.4 C

4.3 C

4.3 C

8.6 C

0 W/m

0.00 mm

00:10

8.7 C

993.7 hpa

80 %

25.7 km/h aus 117

38.6 km/h aus S

5.4 C

4.5 C

4.6 C

8.6 C

0 W/m

0.00 mm

00:15

8.7 C

993.7 hpa

79 %

22.5 km/h aus 117

37.0 km/h aus S

5.3 C

4.8 C

4.9 C

8.6 C

0 W/m

0.00 mm

00:20

8.8 C

993.7 hpa

79 %

22.5 km/h aus 117

38.6 km/h aus SW

5.4 C

5.0 C

5.1 C

8.8 C

0 W/m

0.00 mm

00:25

8.9 C

993.7 hpa

78 %

24.1 km/h aus 117

46.7 km/h aus S

5.3 C

4.9 C

5.0 C

8.8 C

0 W/m

0.00 mm

00:30

9.1 C

993.7 hpa

77 %

24.1 km/h aus 116

53.1 km/h aus SSW

5.2 C

5.1 C

5.2 C

8.9 C

0 W/m

0.00 mm

00:35

9.1 C

993.7 hpa

77 %

20.9 km/h aus 117

37.0 km/h aus SW

5.3 C

5.4 C

5.6 C

9.0 C

0 W/m

0.00 mm

00:40

9.2 C

993.7 hpa

76 %

24.1 km/h aus 116

49.9 km/h aus S

5.2 C

5.1 C

5.3 C

9.0 C

0 W/m

0.00 mm

00:45

9.2 C

993.7 hpa

76 %

29.0 km/h aus 117

49.9 km/h aus S

5.2 C

4.7 C

4.8 C

9.0 C

0 W/m

0.00 mm

00:50

9.2 C

993.7 hpa

76 %

20.9 km/h aus 117

32.2 km/h aus S

5.2 C

5.5 C

5.7 C

9.0 C

0 W/m

0.00 mm

00:55

9.2 C

993.7 hpa

76 %

24.1 km/h aus 116

35.4 km/h aus S

5.2 C

5.1 C

5.3 C

9.0 C

0 W/m

0.00 mm

01:00

9.2 C

993.6 hpa

76 %

22.5 km/h aus 116

35.4 km/h aus S

5.2 C

5.3 C

5.4 C

9.0 C

0 W/m

0.00 mm

01:05

9.2 C

993.6 hpa

75 %

20.9 km/h aus 118

37.0 km/h aus SSW

5.0 C

5.5 C

5.7 C

9.0 C

0 W/m

0.00 mm

01:10

9.2 C

993.6 hpa

75 %

19.3 km/h aus 115

30.6 km/h aus S

5.0 C

5.7 C

5.9 C

9.0 C

0 W/m

0.00 mm

01:15

9.2 C

993.5 hpa

75 %

25.7 km/h aus 117

43.5 km/h aus S

5.0 C

5.0 C

5.2 C

9.1 C

0 W/m

0.00 mm

01:20

9.2 C

993.5 hpa

75 %

24.1 km/h aus 117

35.4 km/h aus S

5.0 C

5.2 C

5.3 C

9.1 C

0 W/m

0.00 mm

01:25

9.2 C

993.5 hpa

75 %

24.1 km/h aus 117

38.6 km/h aus S

5.0 C

5.2 C

5.3 C

9.1 C

0 W/m

0.00 mm

01:30

9.2 C

993.5 hpa

75 %

25.7 km/h aus 117

45.1 km/h aus S

5.0 C

5.0 C

5.2 C

9.1 C

0 W/m

0.00 mm

01:35

9.3 C

993.5 hpa

75 %

22.5 km/h aus 117

40.2 km/h aus SSW

5.1 C

5.4 C

5.6 C

9.1 C

0 W/m

0.00 mm

01:40

9.2 C

993.5 hpa

74 %

22.5 km/h aus 117

38.6 km/h aus S

4.8 C

5.3 C

5.5 C

9.1 C

0 W/m

0.00 mm

01:45

9.2 C

993.5 hpa

74 %

20.9 km/h aus 115

35.4 km/h aus S

4.8 C

5.6 C

5.7 C

9.1 C

0 W/m

0.00 mm

01:50

9.2 C

993.5 hpa

74 %

22.5 km/h aus 117

41.8 km/h aus S

4.8 C

5.3 C

5.5 C

9.1 C

0 W/m

0.00 mm

01:55

9.2 C

993.5 hpa

74 %

22.5 km/h aus 117

37.0 km/h aus S

4.8 C

5.3 C

5.5 C

9.1 C

0 W/m

0.00 mm

02:00

9.2 C

993.4 hpa

74 %

25.7 km/h aus 117

45.1 km/h aus S

4.8 C

5.0 C

5.2 C

9.1 C

0 W/m

0.00 mm

02:05

9.2 C

993.4 hpa

74 %

24.1 km/h aus 117

41.8 km/h aus S

4.8 C

5.2 C

5.3 C

9.1 C

0 W/m

0.00 mm

02:10

9.2 C

993.4 hpa

74 %

20.9 km/h aus 118

37.0 km/h aus S

4.8 C

5.6 C

5.7 C

9.1 C

0 W/m

0.00 mm

02:15

9.2 C

993.5 hpa

74 %

16.1 km/h aus 116

27.4 km/h aus S

4.8 C

6.3 C

6.5 C

9.1 C

0 W/m

0.00 mm

02:20

9.2 C

993.5 hpa

74 %

22.5 km/h aus 116

43.5 km/h aus S

4.8 C

5.3 C

5.4 C

9.0 C

0 W/m

0.00 mm

02:25

9.2 C

993.5 hpa

74 %

19.3 km/h aus 117

29.0 km/h aus SSW

4.8 C

5.7 C

5.9 C

9.0 C

0 W/m

0.00 mm

02:30

9.1 C

993.5 hpa

75 %

16.1 km/h aus 117

25.7 km/h aus S

4.9 C

6.2 C

6.3 C

8.9 C

0 W/m

0.00 mm

02:35

9.1 C

993.5 hpa

75 %

17.7 km/h aus 117

30.6 km/h aus SSW

4.9 C

5.8 C

6.0 C

8.9 C

0 W/m

0.00 mm

02:40

9.1 C

993.5 hpa

75 %

19.3 km/h aus 117

30.6 km/h aus SSW

4.9 C

5.6 C

5.8 C

8.9 C

0 W/m

0.00 mm

02:45

9.0 C

993.3 hpa

75 %

24.1 km/h aus 117

35.4 km/h aus SSW

4.8 C

4.9 C

5.1 C

8.8 C

0 W/m

0.00 mm

02:50

8.9 C

993.3 hpa

75 %

20.9 km/h aus 116

38.6 km/h aus S

4.7 C

5.2 C

5.4 C

8.8 C

0 W/m

0.00 mm

02:55

8.9 C

993.3 hpa

75 %

20.9 km/h aus 117

38.6 km/h aus S

4.7 C

5.2 C

5.4 C

8.8 C

0 W/m

0.00 mm

03:00

8.9 C

993.5 hpa

75 %

20.9 km/h aus 116

37.0 km/h aus SW

4.7 C

5.2 C

5.4 C

8.8 C

0 W/m

0.00 mm

03:05

8.9 C

993.5 hpa

75 %

17.7 km/h aus 116

29.0 km/h aus SSW

4.7 C

5.7 C

5.8 C

8.7 C

0 W/m

0.00 mm

03:10

8.8 C

993.5 hpa

75 %

17.7 km/h aus 118

25.7 km/h aus S

4.6 C

5.6 C

5.8 C

8.7 C

0 W/m

0.00 mm

03:15

8.8 C

993.5 hpa

76 %

19.3 km/h aus 115

33.8 km/h aus SSW

4.8 C

5.3 C

5.4 C

8.6 C

0 W/m

0.00 mm

03:20

8.8 C

993.5 hpa

76 %

16.1 km/h aus 117

25.7 km/h aus S

4.8 C

5.8 C

6.0 C

8.6 C

0 W/m

0.00 mm

03:25

8.7 C

993.5 hpa

76 %

17.7 km/h aus 117

29.0 km/h aus S

4.7 C

5.4 C

5.6 C

8.6 C

0 W/m

0.00 mm

03:30

8.7 C

993.4 hpa

76 %

19.3 km/h aus 115

37.0 km/h aus S

4.7 C

5.2 C

5.3 C

8.5 C

0 W/m

0.00 mm

03:35

8.6 C

993.4 hpa

76 %

11.3 km/h aus 117

25.7 km/h aus SSW

4.6 C

6.6 C

6.8 C

8.4 C

0 W/m

0.00 mm

03:40

8.6 C

993.4 hpa

76 %

16.1 km/h aus 117

30.6 km/h aus SSW

4.6 C

5.6 C

5.7 C

8.4 C

0 W/m

0.00 mm

03:45

8.6 C

993.4 hpa

77 %

17.7 km/h aus 117

30.6 km/h aus WSW

4.8 C

5.3 C

5.4 C

8.4 C

0 W/m

0.00 mm

03:50

8.6 C

993.4 hpa

77 %

16.1 km/h aus 115

27.4 km/h aus SW

4.8 C

5.6 C

5.7 C

8.4 C

0 W/m

0.00 mm

03:55

8.6 C

993.4 hpa

77 %

16.1 km/h aus 117

27.4 km/h aus SW

4.8 C

5.6 C

5.7 C

8.4 C

0 W/m

0.00 mm

04:00

8.6 C

993.5 hpa

77 %

17.7 km/h aus 116

27.4 km/h aus SSW

4.8 C

5.3 C

5.4 C

8.4 C

0 W/m

0.00 mm

04:05

8.6 C

993.5 hpa

77 %

14.5 km/h aus 117

27.4 km/h aus W

4.8 C

5.9 C

6.0 C

8.4 C

0 W/m

0.00 mm

04:10

8.6 C

993.5 hpa

77 %

14.5 km/h aus 117

27.4 km/h aus SSW

4.8 C

5.9 C

6.0 C

8.4 C

0 W/m

0.00 mm

04:15

8.6 C

993.3 hpa

78 %

16.1 km/h aus 118

25.7 km/h aus SW

4.9 C

5.6 C

5.7 C

8.4 C

0 W/m

0.00 mm

04:20

8.6 C

993.3 hpa

78 %

14.5 km/h aus 117

30.6 km/h aus SSW

4.9 C

5.9 C

6.0 C

8.4 C

0 W/m

0.00 mm

04:25

8.5 C

993.3 hpa

78 %

11.3 km/h aus 117

25.7 km/h aus SSW

4.9 C

6.6 C

6.7 C

8.4 C

0 W/m

0.00 mm

04:30

8.4 C

993.5 hpa

78 %

11.3 km/h aus 117

20.9 km/h aus SSW

4.8 C

6.4 C

6.6 C

8.3 C

0 W/m

0.00 mm

04:35

8.4 C

993.5 hpa

78 %

12.9 km/h aus 117

24.1 km/h aus SW

4.8 C

6.1 C

6.2 C

8.3 C

0 W/m

0.00 mm

04:40

8.4 C

993.5 hpa

78 %

12.9 km/h aus 116

22.5 km/h aus SSW

4.8 C

6.1 C

6.2 C

8.3 C

0 W/m

0.00 mm

04:45

8.4 C

993.6 hpa

78 %

12.9 km/h aus 116

25.7 km/h aus SW

4.8 C

6.1 C

6.2 C

8.3 C

0 W/m

0.00 mm

04:50

8.4 C

993.6 hpa

78 %

11.3 km/h aus 117

20.9 km/h aus SW

4.8 C

6.4 C

6.6 C

8.3 C

0 W/m

0.00 mm

04:55

8.4 C

993.6 hpa

79 %

12.9 km/h aus 117

20.9 km/h aus SSW

5.0 C

6.1 C

6.2 C

8.3 C

0 W/m

0.00 mm

05:00

8.4 C

993.6 hpa

79 %

9.7 km/h aus 117

22.5 km/h aus SSW

5.0 C

6.7 C

6.8 C

8.3 C

0 W/m

0.00 mm

05:05

8.5 C

993.6 hpa

79 %

16.1 km/h aus 116

29.0 km/h aus SSW

5.1 C

5.6 C

5.7 C

8.4 C

0 W/m

0.00 mm

05:10

8.5 C

993.6 hpa

79 %

14.5 km/h aus 115

27.4 km/h aus SSW

5.1 C

5.8 C

5.9 C

8.4 C

0 W/m

0.00 mm

05:15

8.5 C

993.6 hpa

79 %

12.9 km/h aus 117

25.7 km/h aus SSW

5.1 C

6.2 C

6.3 C

8.4 C

0 W/m

0.00 mm

05:20

8.5 C

993.6 hpa

79 %

14.5 km/h aus 117

25.7 km/h aus SSW

5.1 C

5.8 C

5.9 C

8.4 C

0 W/m

0.00 mm

05:25

8.5 C

993.6 hpa

79 %

16.1 km/h aus 115

25.7 km/h aus WSW

5.1 C

5.6 C

5.7 C

8.4 C

0 W/m

0.00 mm

05:30

8.5 C

993.6 hpa

79 %

11.3 km/h aus 116

22.5 km/h aus WSW

5.1 C

6.6 C

6.7 C

8.4 C

0 W/m

0.00 mm

05:35

8.5 C

993.6 hpa

79 %

12.9 km/h aus 116

22.5 km/h aus SW

5.1 C

6.2 C

6.3 C

8.4 C

0 W/m

0.00 mm

05:40

8.6 C

993.6 hpa

79 %

12.9 km/h aus 116

24.1 km/h aus SW

5.1 C

6.2 C

6.3 C

8.4 C

0 W/m

0.00 mm

05:45

8.6 C

993.6 hpa

79 %

9.7 km/h aus 116

29.0 km/h aus WSW

5.1 C

6.9 C

7.0 C

8.4 C

0 W/m

0.00 mm

05:50

8.6 C

993.6 hpa

79 %

12.9 km/h aus 117

22.5 km/h aus S

5.1 C

6.2 C

6.3 C

8.4 C

0 W/m

0.00 mm

05:55

8.5 C

993.6 hpa

79 %

17.7 km/h aus 116

29.0 km/h aus SSW

5.1 C

5.3 C

5.4 C

8.4 C

0 W/m

0.00 mm

06:00

8.6 C

993.6 hpa

79 %

16.1 km/h aus 117

29.0 km/h aus S

5.1 C

5.6 C

5.7 C

8.4 C

0 W/m

0.00 mm

06:05

8.5 C

993.6 hpa

79 %

14.5 km/h aus 116

30.6 km/h aus SSW

5.1 C

5.8 C

5.9 C

8.4 C

0 W/m

0.00 mm

06:10

8.5 C

993.6 hpa

79 %

14.5 km/h aus 117

30.6 km/h aus S

5.1 C

5.8 C

5.9 C

8.4 C

0 W/m

0.00 mm

06:15

8.5 C

993.6 hpa

79 %

16.1 km/h aus 117

27.4 km/h aus SW

5.1 C

5.6 C

5.7 C

8.4 C

0 W/m

0.00 mm

06:20

8.5 C

993.6 hpa

79 %

16.1 km/h aus 118

27.4 km/h aus SSW

5.1 C

5.6 C

5.7 C

8.4 C

0 W/m

0.00 mm

06:25

8.5 C

993.6 hpa

79 %

17.7 km/h aus 116

29.0 km/h aus SSW

5.1 C

5.3 C

5.4 C

8.4 C

0 W/m

0.00 mm

06:30

8.4 C

993.7 hpa

79 %

16.1 km/h aus 116

27.4 km/h aus SSW

5.0 C

5.4 C

5.6 C

8.3 C

0 W/m

0.00 mm

06:35

8.4 C

993.7 hpa

79 %

12.9 km/h aus 115

25.7 km/h aus SW

5.0 C

6.1 C

6.2 C

8.3 C

0 W/m

0.00 mm

06:40

8.4 C

993.7 hpa

79 %

12.9 km/h aus 116

27.4 km/h aus SSW

5.0 C

6.1 C

6.2 C

8.3 C

0 W/m

0.00 mm

06:45

8.4 C

993.7 hpa

79 %

16.1 km/h aus 117

25.7 km/h aus SSW

5.0 C

5.4 C

5.6 C

8.3 C

0 W/m

0.00 mm

06:50

8.4 C

993.7 hpa

78 %

12.9 km/h aus 117

25.7 km/h aus SSW

4.8 C

6.0 C

6.1 C

8.3 C

0 W/m

0.00 mm

06:55

8.3 C

993.7 hpa

79 %

17.7 km/h aus 117

29.0 km/h aus SW

4.9 C

5.1 C

5.2 C

8.2 C

0 W/m

0.00 mm

07:00

8.3 C

993.7 hpa

79 %

14.5 km/h aus 117

22.5 km/h aus SSW

4.9 C

5.6 C

5.7 C

8.2 C

0 W/m

0.00 mm

07:05

8.3 C

993.7 hpa

79 %

12.9 km/h aus 117

29.0 km/h aus SW

4.9 C

5.9 C

6.1 C

8.2 C

0 W/m

0.00 mm

07:10

8.3 C

993.7 hpa

79 %

12.9 km/h aus 117

27.4 km/h aus SW

4.9 C

5.9 C

6.1 C

8.2 C

0 W/m

0.00 mm

07:15

8.3 C

993.9 hpa

79 %

11.3 km/h aus 117

24.1 km/h aus SSW

4.8 C

6.3 C

6.4 C

8.2 C

0 W/m

0.00 mm

07:20

8.3 C

993.9 hpa

79 %

12.9 km/h aus 116

20.9 km/h aus SSW

4.8 C

5.9 C

6.0 C

8.2 C

0 W/m

0.00 mm

07:25

8.3 C

993.9 hpa

79 %

14.5 km/h aus 117

27.4 km/h aus SSW

4.8 C

5.6 C

5.7 C

8.2 C

0 W/m

0.00 mm

07:30

8.3 C

994.1 hpa

80 %

16.1 km/h aus 116

29.0 km/h aus SW

5.0 C

5.3 C

5.4 C

8.2 C

0 W/m

0.00 mm

07:35

8.3 C

994.1 hpa

80 %

17.7 km/h aus 117

25.7 km/h aus SW

5.0 C

5.0 C

5.1 C

8.2 C

0 W/m

0.00 mm

07:40

8.3 C

994.1 hpa

80 %

17.7 km/h aus 117

32.2 km/h aus SSW

5.1 C

5.1 C

5.2 C

8.2 C

0 W/m

0.00 mm

07:45

8.3 C

994.1 hpa

80 %

19.3 km/h aus 116

33.8 km/h aus SSW

5.0 C

4.8 C

4.9 C

8.2 C

0 W/m

0.00 mm

07:50

8.3 C

994.1 hpa

79 %

19.3 km/h aus 116

33.8 km/h aus SW

4.8 C

4.8 C

4.9 C

8.2 C

0 W/m

0.00 mm

07:55

8.3 C

994.1 hpa

79 %

20.9 km/h aus 116

33.8 km/h aus SW

4.8 C

4.6 C

4.7 C

8.2 C

0 W/m

0.00 mm

08:00

8.3 C

994.2 hpa

79 %

19.3 km/h aus 117

33.8 km/h aus SW

4.8 C

4.8 C

4.9 C

8.2 C

0 W/m

0.00 mm

08:05

8.3 C

994.2 hpa

77 %

22.5 km/h aus 116

40.2 km/h aus S

4.5 C

4.3 C

4.4 C

8.1 C

0 W/m

0.00 mm

08:10

8.2 C

994.2 hpa

76 %

22.5 km/h aus 116

41.8 km/h aus WSW

4.2 C

4.2 C

4.4 C

8.1 C

0 W/m

0.00 mm

08:15

8.2 C

994.2 hpa

76 %

16.1 km/h aus 115

30.6 km/h aus SW

4.2 C

5.2 C

5.3 C

8.1 C

0 W/m

0.00 mm

08:20

8.2 C

994.2 hpa

76 %

19.3 km/h aus 117

30.6 km/h aus SSW

4.2 C

4.7 C

4.8 C

8.1 C

0 W/m

0.00 mm

08:25

8.3 C

994.2 hpa

76 %

20.9 km/h aus 117

32.2 km/h aus SSW

4.3 C

4.5 C

4.7 C

8.1 C

0 W/m

0.00 mm

08:30

8.2 C

994.1 hpa

76 %

20.9 km/h aus 118

32.2 km/h aus SSW

4.2 C

4.4 C

4.6 C

8.1 C

0 W/m

0.00 mm

08:35

8.2 C

994.1 hpa

76 %

19.3 km/h aus 117

37.0 km/h aus SSW

4.2 C

4.6 C

4.7 C

8.0 C

0 W/m

0.00 mm

08:40

8.1 C

994.1 hpa

77 %

16.1 km/h aus 117

33.8 km/h aus S

4.3 C

5.0 C

5.2 C

7.9 C

0 W/m

0.00 mm

08:45

8.1 C

994.1 hpa

77 %

19.3 km/h aus 114

33.8 km/h aus SSW

4.3 C

4.4 C

4.6 C

7.9 C

0 W/m

0.00 mm

08:50

8.1 C

994.1 hpa

77 %

19.3 km/h aus 117

30.6 km/h aus SW

4.3 C

4.4 C

4.6 C

7.9 C

0 W/m

0.00 mm

08:55

8.1 C

994.1 hpa

78 %

22.5 km/h aus 117

40.2 km/h aus SSW

4.5 C

4.1 C

4.3 C

7.9 C

0 W/m

0.00 mm

09:00

8.2 C

994.3 hpa

78 %

20.9 km/h aus 116

33.8 km/h aus SSW

4.6 C

4.3 C

4.5 C

8.0 C

0 W/m

0.00 mm

09:05

8.3 C

994.3 hpa

78 %

20.9 km/h aus 117

35.4 km/h aus SSW

4.7 C

4.6 C

4.7 C

8.2 C

0 W/m

0.00 mm

09:10

8.3 C

994.3 hpa

78 %

17.7 km/h aus 116

27.4 km/h aus SSW

4.7 C

5.1 C

5.2 C

8.2 C

0 W/m

0.00 mm

09:15

8.3 C

994.5 hpa

78 %

24.1 km/h aus 117

41.8 km/h aus SSW

4.7 C

4.2 C

4.3 C

8.2 C

0 W/m

0.00 mm

09:20

8.4 C

994.5 hpa

78 %

17.7 km/h aus 116

32.2 km/h aus SW

4.8 C

5.2 C

5.3 C

8.3 C

0 W/m

0.00 mm

09:25

8.4 C

994.5 hpa

78 %

17.7 km/h aus 116

35.4 km/h aus SW

4.8 C

5.2 C

5.3 C

8.3 C

0 W/m

0.00 mm

09:30

8.4 C

994.6 hpa

78 %

17.7 km/h aus 117

30.6 km/h aus SW

4.8 C

5.2 C

5.3 C

8.3 C

0 W/m

0.00 mm

09:35

8.4 C

994.6 hpa

78 %

16.1 km/h aus 117

25.7 km/h aus SSW

4.8 C

5.4 C

5.6 C

8.3 C

0 W/m

0.00 mm

09:40

8.4 C

994.6 hpa

78 %

12.9 km/h aus 117

32.2 km/h aus SSW

4.8 C

6.1 C

6.2 C

8.3 C

0 W/m

0.00 mm

09:45

8.4 C

994.7 hpa

79 %

12.9 km/h aus 117

24.1 km/h aus WSW

5.0 C

6.0 C

6.1 C

8.3 C

0 W/m

0.00 mm

09:50

8.3 C

994.7 hpa

79 %

17.7 km/h aus 117

30.6 km/h aus SSW

4.9 C

5.1 C

5.2 C

8.2 C

0 W/m

0.00 mm

09:55

8.2 C

994.7 hpa

80 %

17.7 km/h aus 117

29.0 km/h aus S

5.0 C

4.9 C

5.1 C

8.1 C

0 W/m

0.00 mm

10:00

8.2 C

994.7 hpa

80 %

14.5 km/h aus 117

27.4 km/h aus SSW

4.9 C

5.4 C

5.6 C

8.1 C

0 W/m

0.00 mm

10:05

8.1 C

994.7 hpa

80 %

17.7 km/h aus 117

32.2 km/h aus SSW

4.8 C

4.8 C

4.9 C

7.9 C

0 W/m

0.00 mm

10:10

8.0 C

994.7 hpa

81 %

19.3 km/h aus 116

32.2 km/h aus SSW

4.9 C

4.4 C

4.6 C

7.9 C

0 W/m

0.00 mm

10:15

7.9 C

995.1 hpa

81 %

17.7 km/h aus 117

32.2 km/h aus SW

4.9 C

4.6 C

4.7 C

7.8 C

0 W/m

0.00 mm

10:20

7.9 C

995.1 hpa

81 %

17.7 km/h aus 117

35.4 km/h aus SSW

4.9 C

4.6 C

4.7 C

7.8 C

0 W/m

0.00 mm

10:25

7.9 C

995.1 hpa

81 %

20.9 km/h aus 117

37.0 km/h aus SSW

4.8 C

4.1 C

4.2 C

7.8 C

0 W/m

0.00 mm

10:30

7.9 C

995.2 hpa

81 %

19.3 km/h aus 117

32.2 km/h aus SW

4.8 C

4.3 C

4.4 C

7.8 C

0 W/m

0.00 mm

10:35

7.8 C

995.2 hpa

82 %

17.7 km/h aus 117

32.2 km/h aus SW

4.9 C

4.6 C

4.6 C

7.8 C

0 W/m

0.00 mm

10:40

7.8 C

995.2 hpa

82 %

17.7 km/h aus 117

30.6 km/h aus SW

4.9 C

4.6 C

4.6 C

7.8 C

0 W/m

0.00 mm

10:45

7.8 C

995.2 hpa

82 %

17.7 km/h aus 117

29.0 km/h aus S

4.9 C

4.6 C

4.6 C

7.8 C

0 W/m

0.00 mm

10:50

7.8 C

995.2 hpa

82 %

14.5 km/h aus 117

25.7 km/h aus SW

4.9 C

5.1 C

5.1 C

7.7 C

0 W/m

0.00 mm

10:55

7.8 C

995.2 hpa

82 %

14.5 km/h aus 117

25.7 km/h aus SSW

4.9 C

5.1 C

5.1 C

7.7 C

0 W/m

0.00 mm

11:00

7.7 C

995.4 hpa

82 %

19.3 km/h aus 117

37.0 km/h aus SSW

4.8 C

4.2 C

4.2 C

7.7 C

0 W/m

0.00 mm

11:05

7.7 C

995.4 hpa

82 %

19.3 km/h aus 116

29.0 km/h aus SSW

4.8 C

4.1 C

4.2 C

7.6 C

0 W/m

0.00 mm

11:10

7.7 C

995.4 hpa

83 %

17.7 km/h aus 116

25.7 km/h aus SSW

5.0 C

4.4 C

4.4 C

7.6 C

0 W/m

0.00 mm

11:15

7.6 C

995.6 hpa

83 %

16.1 km/h aus 117

37.0 km/h aus SSW

4.9 C

4.6 C

4.6 C

7.6 C

0 W/m

0.00 mm

11:20

7.6 C

995.6 hpa

83 %

12.9 km/h aus 116

19.3 km/h aus SSW

4.9 C

5.2 C

5.2 C

7.6 C

0 W/m

0.00 mm

11:25

7.6 C

995.6 hpa

84 %

11.3 km/h aus 117

24.1 km/h aus SSW

5.0 C

5.4 C

5.5 C

7.5 C

0 W/m

0.00 mm

11:30

7.6 C

995.7 hpa

84 %

12.9 km/h aus 117

24.1 km/h aus SSW

5.0 C

5.1 C

5.2 C

7.5 C

0 W/m

0.00 mm

11:35

7.5 C

995.7 hpa

84 %

14.5 km/h aus 117

24.1 km/h aus SSW

5.0 C

4.7 C

4.8 C

7.4 C

0 W/m

0.00 mm

11:40

7.4 C

995.7 hpa

85 %

11.3 km/h aus 117

20.9 km/h aus SW

5.1 C

5.3 C

5.4 C

7.4 C

0 W/m

0.00 mm

11:45

7.4 C

995.7 hpa

85 %

14.5 km/h aus 117

25.7 km/h aus W

5.1 C

4.7 C

4.7 C

7.4 C

0 W/m

0.00 mm

11:50

7.4 C

995.7 hpa

85 %

12.9 km/h aus 117

22.5 km/h aus SSW

5.0 C

4.9 C

5.0 C

7.3 C

0 W/m

0.00 mm

11:55

7.4 C

995.7 hpa

86 %

14.5 km/h aus 117

20.9 km/h aus SSW

5.2 C

4.7 C

4.7 C

7.4 C

0 W/m

0.00 mm

12:00

7.4 C

995.8 hpa

86 %

12.9 km/h aus 116

27.4 km/h aus SSW

5.3 C

5.1 C

5.1 C

7.4 C

0 W/m

0.00 mm

12:05

7.4 C

995.8 hpa

86 %

16.1 km/h aus 117

30.6 km/h aus SW

5.3 C

4.4 C

4.4 C

7.4 C

0 W/m

0.00 mm

12:10

7.4 C

995.8 hpa

86 %

9.7 km/h aus 117

20.9 km/h aus SW

5.3 C

5.7 C

5.7 C

7.4 C

0 W/m

0.00 mm

12:15

7.4 C

996.1 hpa

86 %

14.5 km/h aus 117

24.1 km/h aus WSW

5.3 C

4.7 C

4.7 C

7.4 C

0 W/m

0.00 mm

12:20

7.5 C

996.1 hpa

86 %

12.9 km/h aus 117

35.4 km/h aus WSW

5.3 C

5.1 C

5.1 C

7.5 C

0 W/m

0.00 mm

12:25

7.6 C

996.1 hpa

86 %

17.7 km/h aus 116

25.7 km/h aus SW

5.4 C

4.3 C

4.3 C

7.6 C

0 W/m

0.00 mm

12:30

7.6 C

996.0 hpa

85 %

17.7 km/h aus 117

37.0 km/h aus WSW

5.2 C

4.3 C

4.3 C

7.6 C

0 W/m

0.00 mm

12:35

7.6 C

996.0 hpa

85 %

14.5 km/h aus 116

24.1 km/h aus WSW

5.2 C

4.9 C

4.9 C

7.6 C

0 W/m

0.00 mm

12:40

7.6 C

996.0 hpa

85 %

16.1 km/h aus 117

33.8 km/h aus SSW

5.2 C

4.6 C

4.6 C

7.6 C

0 W/m

0.00 mm

12:45

7.7 C

996.1 hpa

85 %

16.1 km/h aus 117

25.7 km/h aus SW

5.3 C

4.7 C

4.7 C

7.7 C

0 W/m

0.00 mm

12:50

7.7 C

996.1 hpa

85 %

14.5 km/h aus 117

27.4 km/h aus SW

5.3 C

5.0 C

5.0 C

7.7 C

0 W/m

0.00 mm

12:55

7.7 C

996.1 hpa

85 %

14.5 km/h aus 117

25.7 km/h aus WSW

5.4 C

5.1 C

5.1 C

7.7 C

0 W/m

0.00 mm

13:00

7.8 C

996.2 hpa

85 %

12.9 km/h aus 117

22.5 km/h aus SW

5.4 C

5.4 C

5.4 C

7.8 C

0 W/m

0.00 mm

13:05

7.8 C

996.2 hpa

85 %

14.5 km/h aus 117

24.1 km/h aus WSW

5.5 C

5.2 C

5.2 C

7.8 C

0 W/m

0.00 mm

13:10

7.8 C

996.2 hpa

85 %

14.5 km/h aus 117

29.0 km/h aus SSW

5.5 C

5.2 C

5.2 C

7.8 C

0 W/m

0.00 mm

13:15

7.8 C

996.4 hpa

85 %

12.9 km/h aus 115

20.9 km/h aus WSW

5.4 C

5.4 C

5.4 C

7.8 C

0 W/m

0.00 mm

13:20

7.7 C

996.4 hpa

86 %

11.3 km/h aus 117

22.5 km/h aus SSW

5.5 C

5.7 C

5.7 C

7.7 C

0 W/m

0.00 mm

13:25

7.7 C

996.4 hpa

86 %

12.9 km/h aus 117

24.1 km/h aus WSW

5.5 C

5.4 C

5.4 C

7.7 C

0 W/m

0.00 mm

13:30

7.7 C

996.7 hpa

86 %

12.9 km/h aus 117

22.5 km/h aus WSW

5.5 C

5.3 C

5.3 C

7.7 C

0 W/m

0.00 mm

13:35

7.8 C

996.7 hpa

86 %

9.7 km/h aus 117

17.7 km/h aus W

5.6 C

6.1 C

6.1 C

7.8 C

0 W/m

0.00 mm

13:40

7.8 C

996.7 hpa

87 %

9.7 km/h aus 117

16.1 km/h aus SSW

5.8 C

6.1 C

6.1 C

7.8 C

0 W/m

0.00 mm

13:45

7.8 C

996.8 hpa

87 %

12.9 km/h aus 118

22.5 km/h aus W

5.8 C

5.5 C

5.5 C

7.8 C

0 W/m

0.00 mm

13:50

7.9 C

996.8 hpa

87 %

11.3 km/h aus 117

22.5 km/h aus WSW

5.9 C

5.9 C

5.9 C

7.9 C

0 W/m

0.00 mm

13:55

7.9 C

996.8 hpa

87 %

9.7 km/h aus 117

16.1 km/h aus W

5.9 C

6.2 C

6.2 C

7.9 C

0 W/m

0.00 mm

14:00

7.9 C

996.9 hpa

87 %

6.4 km/h aus 117

19.3 km/h aus WSW

5.9 C

7.1 C

7.0 C

8.0 C

0 W/m

0.00 mm

14:05

8.2 C

996.9 hpa

86 %

12.9 km/h aus 117

30.6 km/h aus WSW

6.0 C

5.9 C

5.9 C

8.2 C

0 W/m

0.00 mm

14:10

8.4 C

996.9 hpa

85 %

12.9 km/h aus 117

24.1 km/h aus WSW

6.1 C

6.2 C

6.2 C

8.4 C

0 W/m

0.00 mm

14:15

8.6 C

997.0 hpa

84 %

9.7 km/h aus 116

17.7 km/h aus WSW

6.1 C

7.1 C

7.1 C

8.6 C

0 W/m

0.00 mm

14:20

8.5 C

997.0 hpa

83 %

12.9 km/h aus 116

24.1 km/h aus WSW

5.8 C

6.2 C

6.3 C

8.4 C

0 W/m

0.00 mm

14:25

8.4 C

997.0 hpa

83 %

9.7 km/h aus 117

17.7 km/h aus SW

5.7 C

6.7 C

6.8 C

8.3 C

0 W/m

0.00 mm

14:30

8.3 C

997.1 hpa

83 %

11.3 km/h aus 117

20.9 km/h aus WSW

5.6 C

6.4 C

6.4 C

8.3 C

0 W/m

0.00 mm

14:35

8.4 C

997.1 hpa

83 %

11.3 km/h aus 117

22.5 km/h aus SW

5.7 C

6.4 C

6.5 C

8.3 C

0 W/m

0.00 mm

14:40

8.4 C

997.1 hpa

83 %

6.4 km/h aus 117

14.5 km/h aus WSW

5.7 C

7.5 C

7.6 C

8.4 C

0 W/m

0.00 mm

14:45

8.4 C

997.2 hpa

82 %

8.0 km/h aus 117

16.1 km/h aus SSW

5.5 C

7.1 C

7.2 C

8.4 C

0 W/m

0.00 mm

14:50

8.4 C

997.2 hpa

82 %

11.3 km/h aus 118

20.9 km/h aus SW

5.5 C

6.4 C

6.5 C

8.3 C

0 W/m

0.00 mm

14:55

8.3 C

997.2 hpa

82 %

11.3 km/h aus 117

19.3 km/h aus WSW

5.4 C

6.4 C

6.4 C

8.3 C

0 W/m

0.00 mm

15:00

8.3 C

997.3 hpa

82 %

8.0 km/h aus 116

19.3 km/h aus SW

5.4 C

7.0 C

7.1 C

8.3 C

0 W/m

0.00 mm

15:05

8.3 C

997.3 hpa

82 %

6.4 km/h aus 117

14.5 km/h aus W

5.4 C

7.4 C

7.4 C

8.3 C

0 W/m

0.00 mm

15:10

8.3 C

997.3 hpa

82 %

9.7 km/h aus 117

22.5 km/h aus W

5.4 C

6.7 C

6.7 C

8.3 C

0 W/m

0.00 mm

15:15

8.4 C

997.4 hpa

82 %

8.0 km/h aus 117

14.5 km/h aus W

5.5 C

7.1 C

7.1 C

8.3 C

0 W/m

0.00 mm

15:20

8.4 C

997.4 hpa

82 %

11.3 km/h aus 117

17.7 km/h aus SW

5.5 C

6.4 C

6.5 C

8.3 C

0 W/m

0.00 mm

15:25

8.3 C

997.4 hpa

82 %

20.9 km/h aus 117

35.4 km/h aus WSW

5.4 C

4.7 C

4.7 C

8.3 C

0 W/m

0.00 mm

15:30

8.3 C

997.9 hpa

82 %

20.9 km/h aus 116

33.8 km/h aus WSW

5.4 C

4.6 C

4.7 C

8.2 C

0 W/m

0.00 mm

15:35

8.1 C

997.9 hpa

83 %

19.3 km/h aus 116

32.2 km/h aus WSW

5.3 C

4.6 C

4.6 C

8.0 C

0 W/m

0.00 mm

15:40

7.9 C

997.9 hpa

82 %

11.3 km/h aus 117

20.9 km/h aus W

5.0 C

5.8 C

5.9 C

7.8 C

0 W/m

0.00 mm

15:45

7.6 C

998.3 hpa

82 %

11.3 km/h aus 117

20.9 km/h aus W

4.7 C

5.5 C

5.6 C

7.6 C

0 W/m

0.00 mm

15:50

7.4 C

998.3 hpa

83 %

9.7 km/h aus 118

19.3 km/h aus W

4.7 C

5.6 C

5.7 C

7.4 C

0 W/m

0.25 mm

15:55

7.3 C

998.3 hpa

83 %

9.7 km/h aus 117

20.9 km/h aus W

4.6 C

5.4 C

5.4 C

7.2 C

0 W/m

0.00 mm

16:00

7.2 C

998.4 hpa

83 %

8.0 km/h aus 117

16.1 km/h aus WSW

4.5 C

5.7 C

5.7 C

7.2 C

0 W/m

0.00 mm

16:05

7.1 C

998.4 hpa

83 %

6.4 km/h aus 117

16.1 km/h aus WSW

4.4 C

6.0 C

6.1 C

7.1 C

0 W/m

0.00 mm

16:10

7.1 C

998.4 hpa

83 %

9.7 km/h aus 116

17.7 km/h aus W

4.4 C

5.1 C

5.2 C

7.0 C

0 W/m

0.00 mm

16:15

6.9 C

998.8 hpa

84 %

6.4 km/h aus 117

11.3 km/h aus WSW

4.4 C

5.8 C

5.8 C

6.9 C

0 W/m

0.00 mm

16:20

6.9 C

998.8 hpa

84 %

8.0 km/h aus 116

16.1 km/h aus W

4.4 C

5.3 C

5.3 C

6.8 C

0 W/m

0.00 mm

16:25

6.8 C

998.8 hpa

84 %

8.0 km/h aus 116

16.1 km/h aus WSW

4.3 C

5.2 C

5.3 C

6.8 C

0 W/m

0.00 mm

16:30

6.8 C

999.0 hpa

84 %

6.4 km/h aus 116

16.1 km/h aus W

4.3 C

5.6 C

5.6 C

6.7 C

0 W/m

0.00 mm

16:35

6.7 C

999.0 hpa

84 %

4.8 km/h aus 116

11.3 km/h aus WSW

4.2 C

6.0 C

6.1 C

6.6 C

0 W/m

0.00 mm

16:40

6.6 C

999.0 hpa

84 %

4.8 km/h aus 117

14.5 km/h aus W

4.1 C

5.9 C

6.0 C

6.6 C

0 W/m

0.00 mm

16:45

6.5 C

999.3 hpa

84 %

3.2 km/h aus 117

9.7 km/h aus W

4.0 C

6.4 C

6.5 C

6.4 C

0 W/m

0.00 mm

16:50

6.4 C

999.3 hpa

84 %

3.2 km/h aus 117

8.0 km/h aus W

3.9 C

6.4 C

6.4 C

6.4 C

0 W/m

0.00 mm

16:55

6.4 C

999.3 hpa

85 %

6.4 km/h aus 118

11.3 km/h aus WSW

4.1 C

5.2 C

5.3 C

6.4 C

0 W/m

0.00 mm

17:00

6.4 C

999.4 hpa

85 %

6.4 km/h aus 116

11.3 km/h aus WSW

4.1 C

5.2 C

5.3 C

6.4 C

0 W/m

0.00 mm

17:05

6.4 C

999.4 hpa

85 %

4.8 km/h aus 117

11.3 km/h aus WSW

4.0 C

5.7 C

5.7 C

6.3 C

0 W/m

0.00 mm

17:10

6.4 C

999.4 hpa

86 %

6.4 km/h aus 117

16.1 km/h aus WSW

4.2 C

5.1 C

5.2 C

6.3 C

0 W/m

0.00 mm

17:15

6.4 C

999.4 hpa

86 %

8.0 km/h aus 117

17.7 km/h aus W

4.2 C

4.7 C

4.8 C

6.3 C

0 W/m

0.00 mm

17:20

6.3 C

999.4 hpa

86 %

8.0 km/h aus 116

16.1 km/h aus W

4.2 C

4.7 C

4.7 C

6.3 C

0 W/m

0.00 mm

17:25

6.3 C

999.4 hpa

86 %

9.7 km/h aus 117

16.1 km/h aus WSW

4.2 C

4.3 C

4.3 C

6.3 C

0 W/m

0.00 mm

17:30

6.3 C

999.8 hpa

86 %

9.7 km/h aus 117

17.7 km/h aus WSW

4.1 C

4.2 C

4.3 C

6.2 C

0 W/m

0.00 mm

17:35

6.2 C

999.8 hpa

86 %

8.0 km/h aus 117

16.1 km/h aus W

4.1 C

4.5 C

4.6 C

6.2 C

0 W/m

0.00 mm

17:40

6.2 C

999.8 hpa

87 %

6.4 km/h aus 117

11.3 km/h aus W

4.2 C

4.9 C

5.0 C

6.2 C

0 W/m

0.00 mm

17:45

6.2 C

999.9 hpa

87 %

8.0 km/h aus 117

16.1 km/h aus SW

4.2 C

4.4 C

4.5 C

6.1 C

0 W/m

0.00 mm

17:50

6.1 C

999.9 hpa

87 %

6.4 km/h aus 117

14.5 km/h aus WSW

4.1 C

4.8 C

4.9 C

6.1 C

0 W/m

0.00 mm

17:55

6.1 C

999.9 hpa

87 %

3.2 km/h aus 117

8.0 km/h aus WSW

4.1 C

6.0 C

6.1 C

6.0 C

0 W/m

0.00 mm

18:00

6.0 C

1000.3 hpa

87 %

3.2 km/h aus 118

9.7 km/h aus WSW

4.0 C

5.9 C

6.0 C

5.9 C

0 W/m

0.00 mm

18:05

5.9 C

1000.3 hpa

87 %

4.8 km/h aus 116

9.7 km/h aus WSW

3.9 C

5.2 C

5.2 C

5.9 C

0 W/m

0.00 mm

18:10

5.9 C

1000.3 hpa

87 %

3.2 km/h aus 116

8.0 km/h aus WSW

3.9 C

5.8 C

5.9 C

5.8 C

0 W/m

0.00 mm

18:15

5.8 C

1000.6 hpa

87 %

3.2 km/h aus 117

6.4 km/h aus WSW

3.8 C

5.7 C

5.8 C

5.7 C

0 W/m

0.00 mm

18:20

5.7 C

1000.6 hpa

87 %

3.2 km/h aus 116

8.0 km/h aus WSW

3.7 C

5.7 C

5.7 C

5.7 C

0 W/m

0.00 mm

18:25

5.7 C

1000.6 hpa

87 %

3.2 km/h aus 117

6.4 km/h aus WSW

3.7 C

5.6 C

5.7 C

5.6 C

0 W/m

0.00 mm

18:30

5.6 C

1000.9 hpa

87 %

3.2 km/h aus 116

6.4 km/h aus WSW

3.6 C

5.6 C

5.6 C

5.6 C

0 W/m

0.00 mm

18:35

5.5 C

1000.9 hpa

88 %

3.2 km/h aus 116

8.0 km/h aus WSW

3.7 C

5.4 C

5.5 C

5.4 C

0 W/m

0.00 mm

18:40

5.4 C

1000.9 hpa

88 %

3.2 km/h aus 116

11.3 km/h aus SW

3.6 C

5.4 C

5.4 C

5.4 C

0 W/m

0.00 mm

18:45

5.4 C

1001.2 hpa

88 %

3.2 km/h aus 116

9.7 km/h aus SW

3.6 C

5.4 C

5.4 C

5.4 C

0 W/m

0.00 mm

18:50

5.4 C

1001.2 hpa

88 %

3.2 km/h aus 116

8.0 km/h aus SW

3.6 C

5.3 C

5.4 C

5.3 C

0 W/m

0.00 mm

18:55

5.3 C

1001.2 hpa

88 %

3.2 km/h aus 117

8.0 km/h aus SW

3.5 C

5.3 C

5.3 C

5.3 C

0 W/m

0.00 mm

19:00

5.3 C

1001.5 hpa

88 %

4.8 km/h aus 116

11.3 km/h aus SW

3.5 C

4.4 C

4.5 C

5.2 C

0 W/m

0.00 mm

19:05

5.2 C

1001.5 hpa

88 %

3.2 km/h aus 116

8.0 km/h aus WSW

3.4 C

5.1 C

5.2 C

5.2 C

0 W/m

0.00 mm

19:10

5.2 C

1001.5 hpa

88 %

3.2 km/h aus 116

11.3 km/h aus WSW

3.4 C

5.1 C

5.2 C

5.2 C

0 W/m

0.00 mm

19:15

5.2 C

1001.7 hpa

88 %

4.8 km/h aus 117

16.1 km/h aus WNW

3.4 C

4.3 C

4.4 C

5.2 C

0 W/m

0.00 mm

19:20

5.2 C

1001.7 hpa

88 %

6.4 km/h aus 116

12.9 km/h aus W

3.3 C

3.7 C

3.8 C

5.1 C

0 W/m

0.00 mm

19:25

5.2 C

1001.7 hpa

88 %

4.8 km/h aus 117

9.7 km/h aus WNW

3.3 C

4.3 C

4.3 C

5.1 C

0 W/m

0.00 mm

19:30

5.1 C

1001.9 hpa

89 %

4.8 km/h aus 117

9.7 km/h aus W

3.4 C

4.2 C

4.2 C

5.0 C

0 W/m

0.00 mm

19:35

5.1 C

1001.9 hpa

89 %

6.4 km/h aus 116

16.1 km/h aus WSW

3.4 C

3.6 C

3.7 C

5.0 C

0 W/m

0.00 mm

19:40

5.0 C

1001.9 hpa

89 %

6.4 km/h aus 117

11.3 km/h aus W

3.3 C

3.6 C

3.6 C

4.9 C

0 W/m

0.00 mm

19:45

5.0 C

1002.0 hpa

89 %

6.4 km/h aus 117

11.3 km/h aus WSW

3.3 C

3.6 C

3.6 C

4.9 C

0 W/m

0.00 mm

19:50

4.9 C

1002.0 hpa

89 %

4.8 km/h aus 117

9.7 km/h aus WSW

3.3 C

4.1 C

4.1 C

4.9 C

0 W/m

0.00 mm

19:55

4.9 C

1002.0 hpa

89 %

4.8 km/h aus 116

8.0 km/h aus WNW

3.3 C

4.1 C

4.1 C

4.9 C

0 W/m

0.00 mm

20:00

4.8 C

1002.3 hpa

89 %

1.6 km/h aus 117

6.4 km/h aus W

3.2 C

4.8 C

4.8 C

4.8 C

0 W/m

0.00 mm

20:05

4.8 C

1002.3 hpa

89 %

3.2 km/h aus 116

8.0 km/h aus W

3.2 C

4.7 C

4.8 C

4.8 C

0 W/m

0.00 mm

20:10

4.8 C

1002.3 hpa

89 %

3.2 km/h aus 117

6.4 km/h aus W

3.1 C

4.7 C

4.7 C

4.7 C

0 W/m

0.00 mm

20:15

4.7 C

1002.5 hpa

89 %

3.2 km/h aus 117

11.3 km/h aus W

3.1 C

4.6 C

4.6 C

4.7 C

0 W/m

0.00 mm

20:20

4.7 C

1002.5 hpa

89 %

3.2 km/h aus 117

8.0 km/h aus W

3.0 C

4.5 C

4.6 C

4.6 C

0 W/m

0.00 mm

20:25

4.6 C

1002.5 hpa

89 %

3.2 km/h aus 116

8.0 km/h aus W

3.0 C

4.4 C

4.5 C

4.6 C

0 W/m

0.00 mm

20:30

4.6 C

1002.7 hpa

89 %

1.6 km/h aus 113

4.8 km/h aus W

2.9 C

4.5 C

4.6 C

4.5 C

0 W/m

0.00 mm

20:35

4.5 C

1002.7 hpa

89 %

1.6 km/h aus 117

4.8 km/h aus W

2.8 C

4.4 C

4.5 C

4.4 C

0 W/m

0.00 mm

20:40

4.4 C

1002.7 hpa

89 %

3.2 km/h aus 117

6.4 km/h aus W

2.8 C

4.3 C

4.3 C

4.4 C

0 W/m

0.00 mm

20:45

4.4 C

1003.0 hpa

89 %

3.2 km/h aus 117

6.4 km/h aus W

2.7 C

4.2 C

4.3 C

4.3 C

0 W/m

0.00 mm

20:50

4.3 C

1003.0 hpa

89 %

1.6 km/h aus 117

6.4 km/h aus W

2.7 C

4.3 C

4.3 C

4.3 C

0 W/m

0.00 mm

20:55

4.3 C

1003.0 hpa

89 %

3.2 km/h aus 116

4.8 km/h aus W

2.6 C

4.1 C

4.1 C

4.2 C

0 W/m

0.00 mm

21:00

4.2 C

1003.1 hpa

89 %

3.2 km/h aus 116

4.8 km/h aus W

2.6 C

4.0 C

4.1 C

4.2 C

0 W/m

0.00 mm

21:05

4.2 C

1003.1 hpa

89 %

1.6 km/h aus 117

4.8 km/h aus W

2.5 C

4.1 C

4.2 C

4.1 C

0 W/m

0.00 mm

21:10

4.1 C

1003.1 hpa

89 %

3.2 km/h aus 118

4.8 km/h aus W

2.4 C

3.8 C

3.9 C

4.0 C

0 W/m

0.00 mm

21:15

4.0 C

1003.5 hpa

89 %

3.2 km/h aus 116

4.8 km/h aus W

2.4 C

3.8 C

3.8 C

3.9 C

0 W/m

0.00 mm

21:20

3.9 C

1003.5 hpa

89 %

1.6 km/h aus 116

4.8 km/h aus W

2.3 C

3.9 C

3.9 C

3.9 C

0 W/m

0.00 mm

21:25

3.9 C

1003.5 hpa

89 %

3.2 km/h aus 116

9.7 km/h aus WSW

2.2 C

3.7 C

3.7 C

3.8 C

0 W/m

0.00 mm

21:30

3.9 C

1003.6 hpa

89 %

3.2 km/h aus 116

8.0 km/h aus WSW

2.3 C

3.7 C

3.8 C

3.9 C

0 W/m

0.00 mm

21:35

4.0 C

1003.6 hpa

90 %

3.2 km/h aus 116

6.4 km/h aus WSW

2.5 C

3.8 C

3.8 C

3.9 C

0 W/m

0.00 mm

21:40

4.1 C

1003.6 hpa

90 %

4.8 km/h aus 116

9.7 km/h aus WSW

2.6 C

3.1 C

3.1 C

4.0 C

0 W/m

0.00 mm

21:45

4.2 C

1003.7 hpa

90 %

6.4 km/h aus 117

11.3 km/h aus SW

2.7 C

2.7 C

2.7 C

4.2 C

0 W/m

0.00 mm

21:50

4.3 C

1003.7 hpa

90 %

6.4 km/h aus 117

16.1 km/h aus WSW

2.8 C

2.8 C

2.8 C

4.3 C

0 W/m

0.00 mm

21:55

4.4 C

1003.7 hpa

90 %

8.0 km/h aus 117

14.5 km/h aus SW

2.9 C

2.4 C

2.5 C

4.4 C

0 W/m

0.00 mm

22:00

4.5 C

1003.9 hpa

90 %

8.0 km/h aus 117

14.5 km/h aus SW

3.0 C

2.5 C

2.6 C

4.4 C

0 W/m

0.00 mm

22:05

4.6 C

1003.9 hpa

90 %

4.8 km/h aus 117

9.7 km/h aus SW

3.1 C

3.6 C

3.7 C

4.5 C

0 W/m

0.00 mm

22:10

4.6 C

1003.9 hpa

90 %

3.2 km/h aus 117

9.7 km/h aus SW

3.1 C

4.4 C

4.4 C

4.5 C

0 W/m

0.00 mm

22:15

4.6 C

1004.1 hpa

90 %

3.2 km/h aus 117

8.0 km/h aus SW

3.1 C

4.4 C

4.4 C

4.5 C

0 W/m

0.00 mm

22:20

4.6 C

1004.1 hpa

90 %

1.6 km/h aus 116

4.8 km/h aus SW

3.1 C

4.5 C

4.6 C

4.5 C

0 W/m

0.00 mm

22:25

4.5 C

1004.1 hpa

90 %

1.6 km/h aus 116

3.2 km/h aus SW

3.0 C

4.4 C

4.5 C

4.4 C

0 W/m

0.00 mm

22:30

4.4 C

1004.3 hpa

90 %

1.6 km/h aus 117

8.0 km/h aus SW

2.9 C

4.4 C

4.4 C

4.4 C

0 W/m

0.00 mm

22:35

4.3 C

1004.3 hpa

90 %

1.6 km/h aus 116

4.8 km/h aus SW

2.8 C

4.3 C

4.3 C

4.3 C

0 W/m

0.00 mm

22:40

4.2 C

1004.3 hpa

90 %

1.6 km/h aus 116

4.8 km/h aus SW

2.7 C

4.2 C

4.2 C

4.2 C

0 W/m

0.00 mm

22:45

4.1 C

1004.3 hpa

90 %

4.8 km/h aus 117

6.4 km/h aus SW

2.6 C

3.1 C

3.1 C

4.0 C

0 W/m

0.00 mm

22:50

3.9 C

1004.3 hpa

90 %

3.2 km/h aus 117

4.8 km/h aus SW

2.5 C

3.7 C

3.8 C

3.9 C

0 W/m

0.00 mm

22:55

3.8 C

1004.3 hpa

90 %

0.0 km/h aus 115

3.2 km/h aus SW

2.3 C

3.7 C

3.8 C

3.7 C

0 W/m

0.00 mm

23:00

3.6 C

1004.4 hpa

89 %

3.2 km/h aus 116

4.8 km/h aus SW

1.9 C

3.3 C

3.3 C

3.5 C

0 W/m

0.00 mm

23:05

3.4 C

1004.4 hpa

89 %

3.2 km/h aus 116

6.4 km/h aus SW

1.8 C

3.2 C

3.2 C

3.4 C

0 W/m

0.00 mm

23:10

3.3 C

1004.4 hpa

90 %

4.8 km/h aus 117

6.4 km/h aus SW

1.8 C

2.2 C

2.2 C

3.2 C

0 W/m

0.00 mm

23:15

3.2 C

1004.6 hpa

90 %

3.2 km/h aus 117

4.8 km/h aus SW

1.7 C

2.9 C

2.9 C

3.2 C

0 W/m

0.00 mm

23:20

3.2 C

1004.6 hpa

90 %

3.2 km/h aus 118

4.8 km/h aus SW

1.7 C

2.8 C

2.9 C

3.1 C

0 W/m

0.00 mm

23:25

3.2 C

1004.6 hpa

90 %

1.6 km/h aus 117

4.8 km/h aus SW

1.7 C

3.1 C

3.2 C

3.1 C

0 W/m

0.00 mm

23:30

3.2 C

1004.7 hpa

90 %

3.2 km/h aus 117

6.4 km/h aus SW

1.7 C

2.8 C

2.9 C

3.1 C

0 W/m

0.00 mm

23:35

3.2 C

1004.7 hpa

90 %

3.2 km/h aus 115

6.4 km/h aus SW

1.7 C

2.9 C

2.9 C

3.2 C

0 W/m

0.00 mm

23:40

3.3 C

1004.7 hpa

90 %

3.2 km/h aus 117

6.4 km/h aus SW

1.8 C

3.0 C

3.1 C

3.2 C

0 W/m

0.00 mm

23:45

3.3 C

1004.9 hpa

90 %

4.8 km/h aus 117

8.0 km/h aus SW

1.8 C

2.2 C

2.3 C

3.3 C

0 W/m

0.00 mm

23:50

3.4 C

1004.9 hpa

91 %

3.2 km/h aus 116

6.4 km/h aus SW

2.1 C

3.2 C

3.2 C

3.4 C

0 W/m

0.00 mm

23:55

3.5 C

1004.9 hpa

91 %

1.6 km/h aus 117

4.8 km/h aus SW

2.2 C

3.4 C

3.5 C

3.4 C

0 W/m

0.00 mm